Temp
21 22 22 23 23 23 23 23 23 23 22 22 22 21 21 21 22 22 21 21 21 21 21 21 21 21 21 21 21 20 20 20 20 20 20 20 20 20 20 19 19 19 19 19 19 19 19 18 18 18 18 18 18 18 18 18 18 19 18 18 18 18 18 18 18 18 17 17 17 17 17 17 17 17 17 17 18 17 17 17 17 17 17 17 17
21 22 22 23 23 23 23 23 23 23 22 22 22 21 21 21 22 22 21 21 21 21 21 21 20 20 21 21 20 20 20 20 20 20 20 20 20 20 20 19 19 19 19 19 19 19 19 19 18 18 18 18 18 18 18 18 18 18 18 18 18 18 18 18 18 18 18 18 18 17 17 17 17 17 17 17 17 17 17 17 17 17 17 17 16
21 22 22 23 23 23 23 23 23 23 22 22 22 21 21 21 21 21 21 21 21 21 20 20 20 20 20 20 20 20 20 20 20 20 20 20 20 20 20 19 19 19 19 19 19 19 19 19 18 18 18 18 18 18 18 17 17 18 18 18 18 18 18 18 18 18 18 18 18 18 17 17 17 17 17 17 17 17 17 17 17 16 16 16 16
21 22 22 23 23 23 23 23 23 23 22 22 21 21 21 21 21 21 21 21 21 21 20 20 20 20 20 20 20 20 20 20 20 20 20 20 20 20 19 19 19 19 19 19 19 19 19 19 18 18 18 18 18 18 18 17 18 18 19 18 18 18 17 18 18 18 17 17 18 18 18 17 17 17 17 17 17 17 17 17 16 16 16 16 16
21 22 22 22 23 23 23 23 23 22 22 21 21 21 21 20 20 21 21 21 21 21 20 20 20 20 20 20 20 20 20 20 20 20 20 20 19 19 19 19 19 19 19 19 19 19 19 18 18 18 18 18 18 18 17 17 18 19 19 18 18 18 18 18 17 17 17 17 17 18 18 18 18 17 17 17 17 17 17 16 16 16 16 16 16
21 22 22 22 23 23 23 23 23 22 21 21 21 21 21 20 20 20 20 20 21 20 20 20 20 20 20 20 20 20 20 20 20 19 19 19 19 19 19 19 19 19 19 19 19 19 19 19 18 18 18 18 18 18 17 18 18 19 19 18 18 18 18 18 17 17 17 17 17 17 17 18 19 18 17 17 17 17 17 17 17 16 16 16 16
21 22 22 22 23 23 23 23 22 22 21 21 21 21 21 20 20 20 20 20 20 20 20 20 20 20 20 19 19 20 20 20 20 19 19 19 19 19 19 18 19 19 19 19 19 19 19 19 18 18 18 18 18 18 18 18 18 19 19 19 18 18 18 18 18 17 18 18 17 17 18 19 20 19 17 17 17 17 17 16 17 16 16 16 16
21 21 22 22 22 22 23 23 22 21 21 21 21 21 20 20 20 20 20 20 20 20 20 20 20 20 19 20 20 20 20 20 19 19 19 20 19 19 18 18 19 19 19 19 19 19 19 19 18 18 18 18 18 18 18 18 19 19 19 19 19 18 18 18 18 18 18 18 17 17 18 19 19 19 18 17 17 17 17 16 16 16 16 16 16
21 21 22 22 22 22 22 22 22 21 21 21 21 20 20 20 20 20 20 20 20 20 20 20 20 20 20 20 20 20 20 19 19 19 19 20 20 19 19 19 19 19 19 19 19 19 19 18 18 18 18 18 18 18 18 18 19 19 19 19 19 19 19 19 19 19 19 18 17 17 19 19 19 19 18 17 17 17 17 16 16 16 16 16 16
21 21 22 22 22 22 22 22 22 21 21 20 20 20 20 20 20 20 20 20 20 20 20 20 20 20 20 20 20 20 20 19 19 19 19 19 19 19 19 19 19 19 19 19 19 19 18 18 18 18 18 18 18 19 18 18 18 20 20 20 20 19 19 19 19 19 18 18 18 18 19 19 20 20 19 18 17 16 16 16 16 16 16 16 16
21 21 22 22 22 22 22 22 22 21 21 20 20 20 20 20 20 20 19 20 19 20 20 20 20 19 20 20 20 20 20 19 19 19 19 19 19 19 19 19 19 18 19 19 19 19 18 18 18 18 18 18 18 18 18 18 18 20 20 20 20 20 20 20 19 19 18 18 18 19 19 19 20 20 19 18 17 16 16 16 16 16 16 16 16
20 21 22 22 22 22 22 22 22 21 21 20 20 20 20 20 20 20 19 19 19 20 20 19 19 19 20 20 20 20 19 19 19 19 19 19 19 19 19 19 19 18 18 18 18 18 18 18 18 18 18 18 18 18 18 18 19 20 20 20 20 20 20 20 19 18 18 18 19 19 19 19 20 19 19 18 17 16 16 16 16 16 16 16 16
21 21 22 22 22 22 22 22 22 21 21 21 21 21 20 20 20 20 19 19 19 20 20 19 20 20 20 20 20 20 19 19 19 19 19 19 19 19 19 19 19 19 19 18 18 18 18 18 18 18 18 18 18 18 18 18 19 20 20 20 21 20 20 20 19 18 18 19 19 19 20 19 19 19 19 17 16 16 16 16 16 15 16 16 16
21 21 22 21 22 21 22 22 21 21 21 21 21 20 20 20 20 20 19 19 19 20 20 19 20 20 20 20 20 20 19 19 19 19 19 19 19 19 19 19 19 19 19 19 18 18 18 18 18 18 18 17 17 17 18 18 18 19 20 21 21 20 20 20 19 18 19 19 20 20 20 19 19 19 18 17 16 16 16 16 16 15 15 15 15
21 21 21 21 21 21 21 21 21 21 21 21 20 20 20 20 20 20 19 19 20 20 20 20 20 20 20 20 20 20 19 19 19 19 19 19 19 19 19 19 19 19 19 19 18 18 18 18 18 18 18 17 17 17 18 18 19 19 20 21 20 20 20 20 19 19 19 19 20 20 20 19 18 18 18 17 16 16 16 16 16 15 15 15 15
21 21 21 21 21 21 21 21 21 21 21 21 20 20 20 20 20 20 19 19 20 20 20 20 20 20 20 20 19 19 19 19 19 19 19 19 19 19 19 19 19 19 19 18 18 18 18 18 18 18 17 17 17 17 18 18 19 19 20 20 20 20 21 20 19 19 19 19 19 20 20 19 18 18 17 17 16 16 16 16 16 15 15 15 15
20 21 21 21 21 21 21 21 21 21 21 21 20 20 20 20 19 19 19 19 20 20 20 19 19 19 19 19 19 19 19 19 19 19 19 19 19 19 19 19 19 19 18 18 18 18 18 18 18 18 17 17 17 18 18 18 19 19 20 20 20 20 20 20 19 19 19 19 19 19 19 19 19 18 17 17 16 16 16 16 15 15 15 15 15
20 20 21 20 20 21 21 21 21 21 21 21 20 20 20 20 20 19 19 20 20 20 19 19 19 19 19 19 19 19 19 19 19 19 19 19 19 19 19 19 19 19 18 18 18 18 18 18 18 18 17 17 17 18 18 18 18 19 20 20 20 20 20 20 19 19 19 19 19 19 19 19 19 18 18 17 16 16 16 16 15 15 15 15 15
20 20 20 20 20 21 21 21 21 21 20 20 20 20 20 20 20 19 20 20 20 19 19 19 19 19 19 19 19 19 19 19 19 19 19 19 19 19 19 19 19 19 18 18 18 18 18 18 18 18 18 17 17 18 18 18 18 19 20 20 20 20 20 19 19 19 19 19 20 19 19 19 19 18 18 17 16 15 16 16 15 15 15 15 15
20 20 20 20 21 21 21 21 21 21 20 20 20 20 20 20 20 20 20 19 19 19 19 19 19 19 19 19 19 19 19 19 19 19 19 19 19 19 19 19 19 18 18 18 18 18 18 18 18 18 18 17 17 18 18 19 19 19 19 20 20 20 20 19 19 20 20 20 20 20 19 19 19 18 18 17 16 15 15 15 15 15 15 15 15
19 19 19 20 21 21 21 21 20 20 20 20 20 20 19 19 20 19 20 19 19 19 19 19 19 19 19 19 19 19 19 19 19 19 19 19 19 19 19 19 19 19 19 19 18 18 18 18 18 18 18 18 18 18 18 19 19 19 19 20 20 20 20 19 20 20 20 20 20 20 19 19 19 18 17 17 16 15 15 15 15 15 15 15 15
19 19 19 20 20 20 20 20 20 20 20 20 20 20 19 19 19 19 19 20 19 19 19 19 19 19 18 18 18 19 19 19 19 19 19 19 19 18 18 19 19 19 19 19 18 18 18 18 18 18 18 18 18 18 18 18 19 20 20 20 20 20 20 19 19 20 20 20 20 19 19 19 18 17 17 17 16 15 15 15 15 15 15 15 15
19 19 19 20 20 20 20 20 20 20 20 20 20 19 19 19 19 19 19 19 19 19 19 19 19 18 18 19 19 19 19 19 18 18 18 18 18 18 18 18 18 18 18 18 18 18 18 17 18 18 18 18 18 18 18 18 19 20 20 20 20 20 20 19 19 20 20 20 19 19 19 19 18 17 17 16 16 15 15 15 15 15 15 15 15
19 19 19 20 20 20 20 20 19 19 19 19 19 19 19 19 19 19 19 19 19 19 19 18 18 18 18 18 19 19 19 18 18 18 18 18 18 18 18 18 18 18 18 18 18 18 18 17 17 18 18 18 18 18 18 19 19 19 20 20 20 20 20 19 20 20 19 20 19 19 19 18 18 17 16 16 15 15 15 15 15 15 14 14 15
19 19 19 20 20 20 20 20 19 19 19 19 19 19 19 19 19 19 19 19 19 19 19 18 18 18 18 18 18 18 18 18 18 18 18 18 18 17 18 18 18 18 18 18 18 18 18 18 17 18 18 18 18 18 19 19 19 20 20 20 20 20 20 19 20 20 19 19 19 19 19 18 17 16 16 16 15 15 15 15 15 15 14 14 14
19 19 19 20 19 19 19 19 19 19 19 19 19 19 19 19 19 19 19 19 19 19 19 18 18 18 18 18 18 18 18 18 18 18 18 18 18 18 17 17 18 17 17 17 17 17 18 18 18 18 18 18 18 18 18 19 19 20 20 20 20 20 20 19 20 20 19 19 19 19 19 18 17 16 16 16 15 15 15 15 15 14 14 14 14
18 19 19 20 19 19 20 20 19 19 19 19 19 19 18 19 19 19 19 19 19 19 19 18 18 19 19 18 18 18 18 18 18 18 18 18 18 18 18 18 18 17 17 17 17 17 18 18 18 18 18 18 18 18 19 19 19 19 20 20 20 20 20 19 20 20 20 19 19 19 19 18 17 17 16 16 16 15 15 15 15 15 15 14 14
18 20 20 20 20 20 20 20 20 20 19 19 19 19 18 18 19 19 19 19 19 19 19 18 17 18 19 19 18 18 18 18 18 18 18 18 18 18 18 18 18 17 17 17 17 18 18 18 18 18 18 18 18 18 19 19 19 19 20 20 20 20 20 19 20 20 20 20 19 19 19 19 18 17 17 16 16 15 15 15 15 15 15 15 14
17 20 21 20 20 20 20 20 20 20 19 19 19 19 18 18 19 19 19 18 18 18 18 18 17 17 18 19 18 18 18 17 17 17 17 18 18 18 18 18 18 18 18 18 18 18 18 18 18 18 19 19 19 19 19 19 19 20 20 20 20 20 20 20 20 20 20 20 19 19 19 19 18 18 17 16 16 16 15 15 16 16 16 15 15
19 21 21 21 21 20 20 20 21 20 20 20 20 19 18 18 19 19 19 19 18 18 18 18 18 17 17 17 18 18 18 17 17 17 18 18 18 18 18 18 18 18 18 18 18 18 18 18 18 18 19 19 19 19 19 19 19 20 20 20 20 20 20 20 19 20 20 20 19 19 19 19 18 18 17 17 16 16 15 16 16 16 16 16 16
20 21 22 22 21 21 21 21 21 21 21 20 20 20 19 19 19 19 19 19 19 18 18 18 17 16 16 17 18 18 18 17 17 18 18 18 18 18 18 18 18 18 18 18 18 18 18 18 19 19 19 19 19 19 19 19 19 19 20 20 20 20 20 20 20 19 19 19 19 19 19 19 19 18 18 17 17 16 16 15 16 16 16 16 16
20 21 22 22 22 22 22 21 21 21 21 21 21 21 20 20 20 19 19 19 19 19 18 18 17 17 17 17 17 17 17 17 18 18 19 18 18 18 17 17 18 18 18 18 18 18 19 19 19 19 19 19 19 19 19 19 19 19 20 20 20 20 20 20 20 19 19 19 19 19 19 19 19 19 18 18 17 17 16 16 15 15 16 16 16
22 22 21 21 21 21 21 21 21 21 21 21 21 21 21 20 20 19 19 18 18 19 18 18 17 18 17 16 16 16 17 18 18 18 18 18 18 18 17 17 17 18 18 18 18 18 19 18 19 19 19 19 19 19 19 19 19 19 19 19 19 19 19 20 20 20 19 19 19 19 19 19 19 19 19 18 18 17 17 16 16 16 16 15 15
24 23 22 21 21 21 21 22 21 21 21 20 20 21 21 21 20 19 19 18 18 18 18 17 17 18 17 16 16 16 17 18 18 17 18 18 18 17 17 17 17 18 18 18 18 18 18 18 19 19 19 19 19 19 19 19 19 19 19 19 19 19 19 19 19 19 19 19 19 19 19 19 19 19 19 19 18 18 17 17 17 16 16 16 16
24 23 23 22 22 22 22 22 22 21 21 21 21 21 20 20 19 19 19 19 19 18 18 17 17 17 17 17 17 16 17 17 17 17 17 18 18 18 17 17 17 17 18 18 18 18 18 18 18 19 19 19 18 18 18 19 18 18 19 19 19 19 19 19 19 19 19 19 19 19 19 19 19 19 19 19 19 18 18 18 17 17 17 16 16
23 23 23 22 22 22 22 22 21 21 21 21 21 21 20 20 19 20 20 20 20 19 18 17 17 17 17 17 17 17 17 17 16 16 17 17 17 18 18 18 17 17 17 17 17 18 18 18 18 18 18 18 18 18 18 18 18 18 18 18 18 19 19 19 19 19 19 19 19 19 19 19 19 19 19 19 19 19 18 18 18 17 17 17 17
23 23 23 22 22 22 22 21 21 21 21 21 21 20 20 20 20 20 20 19 19 19 18 18 17 17 17 17 18 18 18 18 17 17 17 17 18 18 18 18 17 17 18 17 17 18 18 18 18 18 18 18 18 17 17 18 18 18 18 18 18 18 18 19 19 19 19 19 19 19 18 18 19 19 19 19 19 19 19 19 18 18 18 17 17
23 23 23 22 22 21 21 21 20 21 20 21 20 20 20 20 20 20 19 18 18 19 19 18 18 17 17 17 17 18 17 17 17 17 17 17 18 18 18 18 17 17 17 17 17 17 17 17 18 18 18 18 18 17 17 17 17 17 18 18 18 18 18 18 18 18 18 19 19 19 19 18 18 18 18 19 19 19 19 19 18 18 18 18 17
23 23 22 22 21 21 21 20 20 20 20 20 20 20 20 20 20 20 19 18 18 18 18 18 18 17 17 17 17 17 17 17 17 17 17 18 18 18 17 17 17 17 17 17 17 17 17 17 17 17 17 17 17 17 17 17 17 17 17 17 17 17 17 18 18 18 18 18 18 18 19 19 19 18 18 18 18 19 19 19 19 18 18 18 18
23 22 22 21 21 20 20 20 20 20 20 20 20 20 21 20 20 20 20 18 18 18 18 18 18 18 18 17 17 17 17 17 17 17 18 18 17 17 17 17 16 16 16 16 16 17 17 16 17 17 17 17 17 17 17 17 16 16 16 16 17 17 17 17 18 18 18 18 18 18 18 18 18 19 18 18 18 18 19 19 19 19 19 18 18
23 22 22 21 21 20 20 20 20 20 20 20 21 21 21 21 20 20 20 19 18 18 18 18 18 18 18 18 18 18 18 18 18 18 18 18 17 17 17 16 16 16 16 16 16 16 16 16 16 17 17 17 17 17 17 17 16 16 16 16 16 16 17 17 17 17 17 17 17 17 18 18 18 18 18 18 18 18 18 18 18 18 18 18 18
22 22 22 21 21 20 20 20 20 21 21 21 21 21 21 21 20 20 19 19 18 18 18 18 18 18 18 18 18 18 18 18 18 18 18 18 17 17 16 16 16 16 16 16 16 16 16 16 16 16 16 17 16 16 16 16 16 16 16 16 16 16 16 17 17 17 17 17 17 17 17 18 18 18 18 18 18 18 18 18 18 18 18 18 18
22 22 22 21 21 20 20 20 21 21 21 21 20 21 21 21 20 20 19 19 18 18 18 18 17 17 17 17 17 18 18 18 18 18 17 18 18 17 16 16 16 16 16 16 16 16 16 16 16 16 16 16 16 16 16 16 16 16 16 16 16 16 16 16 16 16 16 16 16 17 17 17 17 17 17 18 18 18 17 18 18 17 17 17 17
22 22 22 21 21 20 20 20 21 21 21 21 21 21 21 20 20 19 19 19 18 18 17 17 17 17 17 17 17 17 18 18 18 18 17 17 17 17 17 17 17 16 16 16 16 16 16 16 16 16 16 16 16 16 16 16 16 15 16 16 15 16 16 16 15 16 16 16 16 16 17 17 17 17 17 16 17 17 17 17 18 17 17 17 17
22 22 22 21 21 20 20 21 21 21 21 21 21 21 20 20 19 19 18 18 18 18 17 17 17 17 17 17 17 17 18 18 18 18 17 17 17 17 17 17 17 16 16 16 16 16 16 16 16 16 16 16 16 15 15 15 15 15 15 15 15 16 16 15 15 16 16 16 16 16 16 17 17 17 16 16 16 17 17 17 18 18 18 18 18
22 22 22 21 21 20 20 21 21 21 21 21 21 20 20 19 19 19 18 18 18 18 17 17 17 17 17 17 17 17 17 17 17 17 17 17 17 17 17 17 17 16 17 16 16 15 16 16 16 16 16 16 16 15 15 15 15 15 15 15 15 16 15 15 16 16 15 16 16 16 16 16 17 17 17 16 16 17 17 17 18 18 18 18 18
22 22 22 21 21 20 20 21 21 21 21 21 20 20 20 20 20 19 19 18 18 18 17 17 17 17 16 17 17 17 17 17 17 17 17 17 17 17 17 17 17 17 16 16 16 16 16 16 15 15 15 15 15 15 15 15 15 15 15 15 15 15 15 15 15 15 15 16 16 16 16 16 16 16 16 16 16 17 17 17 18 18 18 18 18
22 22 22 21 21 20 20 21 21 21 21 20 20 20 20 20 20 20 19 18 18 18 17 17 17 17 16 17 17 16 17 16 16 16 17 17 17 17 17 17 17 16 16 16 16 16 16 16 16 16 15 15 15 16 15 15 15 15 15 15 15 15 15 15 15 15 15 15 16 16 16 16 16 16 16 17 17 17 17 17 17 18 18 18 18
22 22 22 22 21 21 20 21 21 21 20 20 20 20 20 20 20 19 19 18 18 18 17 17 17 17 16 16 16 16 16 16 16 16 16 17 17 17 17 17 17 16 16 16 16 16 16 16 16 16 16 15 15 16 15 15 15 15 15 15 15 15 15 15 15 15 15 15 16 16 16 16 16 16 16 17 17 17 17 17 17 18 18 19 19
21 21 21 22 21 21 20 20 21 21 20 20 20 20 20 20 19 19 19 18 18 18 17 17 17 17 17 16 16 16 16 16 16 16 16 16 16 17 17 16 16 16 16 16 15 16 15 15 15 16 16 16 15 15 15 15 15 15 15 15 15 15 15 14 14 15 15 15 15 15 16 16 16 17 17 17 17 17 17 17 18 18 18 19 19
20 20 20 21 21 20 20 20 20 20 20 19 20 20 20 20 19 19 19 18 18 18 17 17 17 17 17 16 16 16 16 16 16 16 16 16 16 16 16 16 16 16 16 15 15 15 15 15 15 15 16 16 16 16 16 16 16 16 16 15 15 15 15 15 15 15 15 15 15 15 15 16 16 16 16 17 17 17 18 18 18 19 19 19 19
Height
767 765 768 771 776 778 780 781 783 784 786 787 788 790 791 793 794 796 797 799 800 802 803 804 805 806 807 807 808 809 810 810 811 812 812 813 814 815 816 816 817 817 818 818 818 818 819 819 820 821 821 821 821 822 822 823 823 823 823 824 824 825 825 826 826 827 828 829 829 830 830 831 831 832 832 832 832 833 833 833 833 833 833 833 833
765 766 767 771 775 777 780 781 783 784 786 787 788 790 791 793 795 796 798 799 801 802 804 805 806 807 808 809 809 810 811 811 812 813 814 814 815 816 817 817 818 819 819 819 819 819 820 820 821 822 822 823 823 823 823 824 824 824 824 825 825 826 826 827 827 828 829 829 830 830 831 832 832 833 833 833 833 833 834 834 834 834 834 834 834
765 767 767 770 775 777 780 781 783 784 786 787 788 790 792 794 795 797 798 800 801 803 805 806 807 808 809 810 810 811 811 812 813 814 815 815 816 817 817 818 818 819 820 820 820 820 821 821 822 823 823 823 824 824 824 825 825 825 825 826 826 827 827 828 828 829 830 830 831 831 831 832 833 834 834 834 834 834 835 835 835 835 835 835 835
766 768 769 771 774 777 780 781 783 784 786 787 788 790 792 794 795 797 798 800 802 804 805 806 808 809 810 811 811 812 812 813 814 815 815 816 817 818 818 819 819 820 820 821 821 821 822 822 823 824 824 824 825 825 825 825 825 826 826 827 827 828 828 829 830 830 831 831 832 832 832 833 834 835 835 835 835 835 836 836 836 836 836 836 836
768 769 770 772 774 778 780 782 783 785 786 787 789 790 792 794 796 798 799 801 802 804 806 807 809 810 811 812 813 813 813 814 815 816 816 817 818 818 819 820 820 821 821 822 822 823 823 823 824 825 825 825 826 826 826 826 826 827 827 828 828 829 829 830 831 831 832 832 833 833 833 834 834 835 836 836 836 837 837 837 837 837 837 837 837
770 771 772 773 775 778 780 782 784 786 787 788 789 791 793 795 796 798 800 801 803 805 806 808 809 811 812 813 814 814 815 815 816 817 817 818 819 819 820 820 821 822 822 823 823 824 824 825 825 826 826 826 827 827 827 827 827 827 828 829 829 830 830 831 832 832 833 833 834 834 835 835 835 835 837 837 837 838 837 838 838 837 837 838 838
771 773 775 774 777 779 781 783 785 787 788 789 790 791 793 795 797 799 800 802 804 805 807 808 810 811 812 813 814 815 816 816 817 818 818 819 819 820 821 821 822 822 823 824 825 825 825 826 826 827 827 828 828 828 828 828 828 828 829 829 830 831 831 832 832 833 834 834 835 836 836 836 836 836 837 838 838 839 838 838 838 838 838 838 838
773 776 777 777 779 780 783 784 786 788 789 790 791 793 794 796 798 799 801 803 804 806 807 809 810 811 813 814 815 816 816 817 818 819 819 820 820 821 821 822 823 823 824 825 825 826 827 827 827 828 828 829 829 829 829 829 829 829 829 830 830 831 832 833 833 834 834 835 836 836 837 837 836 836 838 838 839 839 839 839 839 839 839 839 839
777 778 779 780 780 782 784 786 788 789 790 791 792 794 795 797 799 800 802 803 805 806 808 809 811 812 813 814 815 816 817 818 819 820 820 821 821 822 822 823 823 824 824 825 826 827 827 828 828 829 829 829 830 830 830 830 830 830 830 830 830 832 833 833 834 834 834 834 835 837 837 837 836 837 838 839 839 839 839 840 839 840 840 840 840
778 779 780 781 782 784 785 787 789 790 791 792 794 795 796 798 799 801 803 804 806 807 809 810 811 812 813 815 816 817 818 819 820 820 821 822 822 822 823 823 824 825 825 826 826 827 828 829 829 829 830 830 830 831 831 831 830 830 830 830 831 832 833 833 834 834 834 833 835 837 837 837 837 837 838 839 840 840 840 840 840 840 841 841 841
778 779 780 781 783 785 786 788 790 791 793 794 795 796 797 799 801 802 804 805 807 808 809 810 811 813 814 815 816 818 819 820 820 821 822 822 823 823 824 824 825 825 826 826 827 828 829 830 830 830 831 830 831 831 831 831 831 831 831 831 831 832 832 833 834 834 834 834 836 837 837 837 837 838 838 839 840 841 841 841 841 841 841 842 842
780 780 781 782 784 786 787 789 790 792 793 795 796 797 799 800 802 803 805 806 807 809 809 811 812 813 814 815 817 818 819 820 821 821 822 823 824 824 824 825 825 826 826 827 827 828 829 830 831 831 831 831 831 831 832 832 832 832 831 831 831 832 833 833 834 834 835 836 837 837 838 838 838 838 839 839 840 841 841 842 842 842 842 842 843
781 781 782 783 784 787 788 790 791 793 794 796 797 798 800 801 803 804 806 807 808 809 810 812 812 813 814 815 817 818 819 820 821 822 823 823 824 825 825 826 826 826 826 827 828 829 830 831 831 832 832 832 832 832 832 832 833 833 832 832 832 833 833 834 835 835 836 837 837 837 838 838 839 839 839 839 840 842 842 843 843 843 843 843 843
780 782 783 784 786 788 789 791 792 793 795 796 798 799 801 802 804 805 807 808 809 810 811 812 813 814 815 816 817 818 820 820 821 822 823 824 824 825 826 826 827 827 827 827 828 829 830 831 832 832 832 833 833 833 833 833 833 833 833 833 833 834 834 835 835 836 837 837 837 838 838 839 840 840 839 840 840 842 843 844 844 843 844 844 844
781 782 784 786 787 789 790 792 793 794 795 797 799 800 802 803 805 806 808 809 810 811 812 813 814 815 816 817 818 819 820 820 821 822 823 824 825 826 826 827 827 827 827 828 829 830 831 831 832 832 833 833 833 833 833 833 833 833 833 833 834 834 835 835 835 836 837 837 837 838 839 839 840 840 840 840 841 843 844 844 844 844 844 845 845
780 782 784 786 788 790 792 793 794 796 796 798 799 801 803 804 806 807 809 810 811 813 813 815 815 816 817 818 818 819 820 821 822 822 823 824 825 826 826 827 827 828 828 828 829 830 831 831 832 832 833 833 833 834 833 833 833 833 834 834 835 835 835 835 835 836 837 837 837 838 839 839 840 840 841 841 842 843 844 845 845 845 845 845 845
780 783 785 787 790 791 792 794 795 797 798 799 800 802 804 806 807 808 810 811 812 813 814 815 816 817 818 818 819 820 820 821 822 823 824 824 825 826 826 827 828 828 828 829 829 830 831 831 832 832 833 833 833 834 833 833 833 833 834 835 835 836 836 836 836 836 837 837 838 839 839 840 840 841 841 841 843 844 845 845 846 846 846 846 846
781 784 786 788 790 791 793 794 795 797 798 800 802 803 805 807 808 809 811 811 812 813 814 816 817 817 818 819 819 820 820 821 823 823 824 825 825 826 827 827 828 828 828 829 830 830 831 832 832 832 833 833 834 834 834 834 833 833 834 835 836 836 837 837 836 836 836 837 838 839 839 840 840 841 841 842 843 844 845 846 846 846 847 847 847
783 785 787 789 789 791 791 793 795 796 799 800 802 804 806 808 809 811 811 812 813 813 814 816 817 818 818 819 819 820 820 821 823 824 824 825 825 826 827 827 828 828 829 829 830 830 831 832 832 832 833 833 834 834 834 834 834 834 834 835 836 836 837 838 837 836 836 837 838 839 839 840 840 841 841 842 843 844 845 846 846 847 847 847 847
785 787 787 788 788 789 790 792 795 796 799 800 803 804 806 808 809 811 812 813 813 814 815 816 817 818 818 819 819 820 820 821 823 824 824 825 825 826 827 827 828 828 829 829 830 830 831 832 832 833 833 833 834 834 834 834 834 834 835 835 836 836 837 838 838 837 837 837 838 838 839 839 840 840 841 842 843 844 845 846 847 847 847 848 848
786 787 787 787 788 790 791 793 794 796 798 800 803 804 806 808 810 811 812 813 813 814 815 816 817 818 819 819 820 820 821 822 823 824 824 825 826 827 827 827 828 828 829 829 830 830 831 832 832 833 833 834 834 834 835 835 835 835 835 835 836 836 837 839 838 838 837 837 838 838 839 839 839 840 840 841 842 844 845 846 847 847 848 848 848
786 787 788 788 789 791 792 793 795 797 798 800 802 804 806 808 810 811 812 813 813 815 815 816 817 818 819 819 820 821 821 822 823 824 824 825 826 827 828 828 828 829 829 829 830 830 831 832 832 833 833 834 834 834 835 835 836 836 836 836 837 837 838 839 839 839 838 838 838 838 839 839 839 839 840 841 842 843 845 846 847 847 848 848 849
786 787 788 789 790 791 792 794 795 797 798 800 802 804 806 808 810 811 812 813 813 814 815 816 817 818 819 820 821 821 821 822 823 824 825 825 826 827 828 828 829 829 829 829 830 830 830 831 832 833 833 834 834 835 835 835 836 836 837 837 837 837 838 839 839 839 839 839 839 839 839 839 839 840 840 840 841 843 844 846 847 847 847 848 849
787 787 788 789 790 791 792 794 795 797 798 800 802 804 806 808 809 810 811 812 813 814 815 816 817 818 819 820 820 821 821 821 822 824 824 825 826 827 828 828 829 829 829 829 829 829 830 831 832 832 833 833 834 834 835 835 835 836 837 838 838 838 838 839 839 839 840 840 840 839 839 839 839 840 840 840 841 842 843 845 846 847 847 848 848
789 787 788 789 790 791 792 794 796 797 799 800 802 804 805 807 808 808 810 811 812 813 814 816 817 817 818 819 819 820 820 821 822 823 824 825 826 827 828 828 828 828 829 829 829 829 830 831 831 832 832 833 833 834 835 835 835 836 837 838 839 838 839 839 839 840 840 840 840 840 840 839 840 840 841 841 841 842 843 844 845 846 847 848 848
793 789 788 789 791 792 793 794 796 797 799 800 802 804 805 806 807 807 809 810 811 812 814 815 816 817 817 817 818 819 820 820 821 822 823 825 826 827 827 828 828 828 828 829 829 829 829 830 831 832 832 833 833 834 834 834 835 836 836 838 838 839 839 839 839 840 840 841 841 841 841 840 840 840 841 841 841 842 843 844 844 845 846 847 848
796 791 790 790 791 792 793 794 795 797 798 800 802 803 804 805 806 807 808 809 810 812 813 815 816 816 816 816 817 819 819 820 820 821 822 825 826 827 827 827 827 827 827 828 828 829 829 830 831 831 832 832 833 834 834 834 835 836 836 837 838 839 839 839 839 839 840 840 841 841 841 840 841 841 841 842 842 842 843 843 844 845 845 846 847
798 792 791 790 792 793 794 795 796 798 799 801 802 803 805 805 806 807 807 809 810 811 813 815 816 816 816 816 817 819 819 820 821 821 823 825 827 827 827 827 826 827 827 827 828 828 829 829 830 831 831 832 832 833 834 835 835 836 836 837 837 839 839 839 839 839 840 840 841 841 841 841 841 841 842 842 842 842 842 843 844 844 845 845 846
798 792 791 792 793 793 794 795 796 798 799 801 803 804 804 805 806 806 807 808 810 811 813 814 815 816 816 816 817 818 820 821 822 823 825 827 827 827 827 826 826 826 827 827 827 827 828 829 830 830 831 831 832 833 834 834 835 835 836 836 837 838 838 839 839 839 839 840 841 841 841 841 841 841 841 842 842 842 842 843 843 844 844 845 846
796 791 791 792 793 794 794 795 796 798 800 801 802 803 804 805 806 806 807 808 809 811 812 813 815 815 816 818 817 817 819 821 823 824 825 825 825 826 826 826 826 826 826 827 827 827 828 828 829 829 830 831 832 832 833 834 834 835 835 835 836 837 838 838 838 839 839 840 840 841 841 841 841 841 841 842 842 843 843 843 843 843 844 844 845
793 791 791 792 793 793 793 795 797 798 799 801 802 803 804 805 805 805 806 807 808 810 811 813 815 815 817 818 818 817 819 821 822 821 821 822 823 824 824 825 825 826 826 826 827 827 828 828 828 829 829 830 832 832 832 833 834 835 835 835 836 836 837 838 838 838 839 840 840 840 840 841 841 841 841 842 842 843 843 843 843 843 843 844 844
791 791 791 792 793 792 793 795 796 798 800 801 802 803 804 805 805 805 806 807 808 809 810 812 814 814 815 816 817 818 820 821 821 820 819 820 822 822 824 824 825 825 826 826 827 827 828 828 828 828 829 830 831 831 832 832 833 834 834 834 835 835 836 837 838 838 838 839 839 839 840 840 841 841 841 842 842 843 843 843 843 843 843 843 844
788 790 790 792 793 793 795 795 796 798 800 801 802 803 804 805 806 806 806 807 808 809 810 812 812 813 814 815 817 819 820 820 820 818 818 819 821 822 823 823 824 824 825 825 826 827 827 827 828 828 828 829 829 830 831 832 832 833 833 833 834 834 835 836 837 837 838 838 838 839 839 839 840 841 841 841 842 842 842 843 843 843 843 843 844
784 786 787 789 792 793 795 795 796 798 800 802 802 803 804 805 806 806 807 807 808 809 811 812 812 812 813 814 816 818 819 819 819 818 818 818 819 821 821 822 823 823 823 824 825 826 826 826 826 827 827 828 828 829 830 830 831 832 832 833 833 834 834 835 836 836 837 837 838 838 839 839 839 840 841 841 842 842 842 842 842 842 843 843 844
782 783 785 787 790 791 792 794 796 798 800 801 802 802 803 804 806 806 807 807 808 809 810 811 811 811 812 812 813 816 817 818 820 820 820 819 819 820 820 821 822 822 822 823 824 825 825 825 825 826 826 827 828 829 829 830 831 832 832 832 833 833 833 834 835 836 836 837 838 838 838 839 839 839 840 840 841 842 842 842 842 842 842 843 843
780 782 784 786 788 790 791 794 796 798 799 801 802 803 803 804 805 806 807 807 808 808 809 810 811 811 811 811 812 813 815 818 820 821 821 820 820 820 820 820 821 822 822 822 823 824 824 825 825 825 826 827 828 828 829 830 831 832 832 832 833 833 833 833 834 835 835 836 837 838 838 838 838 839 839 839 840 840 841 842 842 842 842 842 842
780 782 784 786 788 790 792 794 796 798 799 801 802 803 804 804 805 805 806 807 808 808 808 809 809 810 811 811 812 812 814 817 818 819 820 820 819 819 819 820 820 821 821 822 822 823 823 824 824 825 825 826 827 828 829 831 831 832 832 832 832 833 833 833 834 834 835 835 836 837 838 838 838 838 838 838 839 839 840 841 841 842 842 842 842
780 783 785 787 788 790 792 794 797 799 800 801 802 803 804 805 805 806 806 807 808 807 807 808 808 809 810 811 811 812 815 817 818 819 819 819 818 818 819 819 820 820 820 820 821 822 823 823 824 825 825 825 827 828 829 830 831 831 831 832 832 832 833 833 833 833 834 834 835 836 837 837 838 839 838 838 838 838 839 840 840 841 841 841 842
780 782 785 787 789 791 793 795 797 799 800 801 803 804 805 806 806 807 806 806 807 807 807 808 808 809 810 811 813 814 817 818 819 819 819 818 817 818 818 819 819 819 819 820 821 821 822 823 823 824 825 825 827 828 829 830 831 831 831 832 832 832 833 833 833 833 833 834 834 835 835 836 837 838 838 837 838 838 838 838 839 840 840 841 841
779 782 785 788 790 792 793 796 798 799 800 801 803 805 806 806 807 807 807 807 807 808 808 809 809 810 811 812 814 815 816 817 818 818 817 817 817 817 818 818 819 819 820 820 821 821 822 823 823 824 825 826 827 828 829 830 830 831 831 832 832 833 833 833 833 833 833 833 834 834 835 835 836 837 837 837 838 838 838 838 838 838 839 839 840
779 782 785 788 790 791 794 795 797 799 799 801 803 804 806 807 807 807 807 807 808 808 809 809 810 811 812 813 813 814 815 815 816 816 816 816 816 817 817 818 818 818 819 820 821 821 822 823 824 824 825 826 827 828 829 830 830 831 831 831 832 832 833 833 833 833 833 833 833 834 834 834 835 836 836 836 837 837 837 838 838 838 838 838 839
777 781 784 787 789 791 793 795 796 798 799 801 803 804 806 807 807 807 807 808 808 808 809 809 810 811 812 813 813 814 814 814 815 815 815 816 816 816 817 818 818 818 819 820 820 821 822 823 824 825 826 826 828 829 829 830 830 831 831 831 832 832 832 832 833 833 832 832 833 833 834 833 834 834 835 835 835 836 837 837 837 837 837 838 838
777 780 783 786 788 791 793 794 796 797 800 802 803 805 806 807 807 807 807 808 808 808 809 810 810 810 811 812 813 813 814 814 815 815 815 816 816 816 817 818 818 818 819 819 819 820 822 823 824 825 826 827 828 829 829 829 830 831 832 832 833 833 833 833 833 833 833 832 833 833 833 833 833 833 833 833 834 835 836 836 836 836 836 837 837
776 779 782 785 788 790 792 793 795 797 800 802 803 804 806 807 808 808 808 808 809 810 809 810 810 810 811 812 813 813 814 814 815 815 816 816 817 817 817 818 818 818 819 819 819 820 821 823 824 825 826 826 827 828 829 829 829 830 832 833 833 834 834 834 833 833 833 832 832 832 832 833 833 833 832 833 834 835 835 835 835 835 836 836 836
775 777 780 784 786 789 791 793 795 797 800 802 803 804 805 807 808 809 810 810 810 810 810 810 811 811 811 812 813 813 813 814 814 815 816 816 817 817 818 818 819 819 819 819 819 820 821 823 824 825 825 826 826 827 828 829 829 830 831 832 833 834 835 834 833 833 833 832 832 832 832 832 833 833 833 833 834 834 834 834 834 834 835 835 835
773 776 780 783 786 788 791 793 795 798 801 802 803 804 805 806 807 808 809 810 811 811 810 809 810 811 811 812 812 813 813 813 814 815 815 816 816 817 818 819 819 818 819 819 820 821 822 823 824 824 825 825 826 826 827 828 829 830 831 831 832 833 833 833 834 834 833 832 832 832 832 832 833 833 833 833 833 833 833 833 833 833 833 833 833
772 776 779 782 784 787 790 792 795 799 801 802 803 804 805 806 806 807 808 809 810 810 810 810 810 810 811 811 812 813 813 813 814 815 815 816 816 817 818 819 819 819 819 820 820 821 822 823 824 824 824 825 825 826 826 828 829 830 831 831 831 832 832 833 834 834 834 833 832 832 832 832 832 833 833 832 832 832 832 832 832 832 832 832 831
771 775 777 780 782 785 788 790 793 798 801 803 804 804 805 805 806 807 809 809 809 810 811 811 811 811 811 812 812 813 813 814 815 815 816 816 817 817 818 819 819 820 821 821 821 822 823 823 824 824 824 824 825 825 826 827 828 829 830 831 831 832 832 833 833 833 834 834 833 832 832 832 832 832 832 832 832 832 832 832 832 831 831 830 830
770 772 774 777 780 783 786 787 789 796 801 803 804 804 805 805 806 807 808 810 810 811 811 811 812 811 811 812 812 813 814 814 815 816 817 818 818 818 819 820 820 821 822 822 823 823 824 824 824 825 824 825 825 826 826 827 828 829 829 830 831 832 832 833 833 833 833 834 833 832 832 832 832 832 832 831 831 831 831 831 831 830 829 829 828
768 771 773 775 778 780 784 785 785 792 800 803 804 805 805 805 806 806 807 808 810 811 812 812 813 812 812 812 812 813 814 815 816 817 818 818 819 820 820 821 822 822 822 823 824 824 825 825 825 826 826 826 826 827 827 828 829 829 829 830 830 831 832 833 833 833 833 833 833 833 832 832 832 831 831 831 831 831 831 830 830 829 828 827 827
768 771 772 774 777 779 782 785 785 789 797 802 803 805 805 805 805 805 805 806 808 810 812 812 813 812 812 812 813 814 815 816 817 818 819 819 820 821 822 823 823 823 824 824 825 826 826 826 826 827 827 828 828 828 829 829 830 830 830 830 831 831 832 833 833 833 833 833 834 834 833 832 832 832 831 831 831 830 830 829 829 828 827 827 826
Wind_Speed
29 34 33 29 27 25 24 23 21 20 20 20 20 20 20 19 19 19 19 18 17 16 15 15 14 14 13 12 13 14 15 16 15 15 15 15 15 16 16 15 15 14 14 14 15 16 16 18 18 18 18 17 17 17 17 17 17 17 18 18 18 18 20 20 20 20 20 20 20 20 18 16 16 16 18 18 17 17 18 17 16 17 18 17 17
31 34 34 30 28 26 24 23 21 21 20 21 20 20 19 18 19 19 19 18 17 16 15 15 15 14 13 12 12 13 14 14 13 13 13 13 13 13 14 14 14 13 13 13 14 15 16 17 18 17 17 17 17 16 15 15 16 16 16 17 17 18 19 19 19 18 19 19 18 18 19 18 17 16 17 18 17 16 17 17 16 16 17 16 17
33 34 33 32 29 27 25 23 22 21 21 21 20 20 19 18 18 19 19 18 17 17 16 15 15 14 13 13 12 12 13 12 12 12 11 11 11 11 12 13 13 12 13 13 14 15 16 17 17 16 16 15 15 14 14 14 14 14 15 17 18 19 19 19 19 19 20 20 19 19 20 19 17 16 17 17 16 15 15 16 16 16 16 15 16
33 33 33 31 29 27 25 24 22 21 21 21 20 20 18 18 18 19 19 18 17 17 16 16 16 15 15 14 13 13 12 12 12 11 11 10 10 11 12 12 12 12 12 13 14 15 16 17 16 16 15 15 15 14 13 13 13 14 16 17 19 19 18 18 20 20 20 20 20 21 21 20 19 16 16 16 16 16 15 15 15 15 16 16 16
33 32 32 31 29 27 25 24 22 21 21 21 20 19 19 18 18 19 19 19 18 17 16 16 16 15 15 15 14 14 13 12 11 11 11 10 11 11 12 12 11 12 12 13 13 14 15 16 16 15 14 14 13 12 12 12 14 16 17 17 18 18 18 18 20 21 20 20 20 20 21 20 19 16 15 15 15 14 14 15 15 15 15 15 16
32 31 31 31 29 27 25 24 22 21 21 21 20 19 19 18 18 19 19 19 18 18 16 16 16 16 15 15 14 14 13 12 11 11 11 11 11 11 11 11 12 12 12 12 13 13 14 15 15 14 14 13 11 11 12 12 15 17 17 17 16 16 16 16 17 18 17 16 16 17 20 19 16 15 15 14 14 13 13 14 14 15 15 15 15
31 31 30 30 28 26 25 24 22 21 20 20 19 19 19 18 18 18 19 19 19 18 17 16 16 16 16 15 14 14 13 12 11 11 11 11 10 11 11 11 12 12 12 11 12 13 13 13 14 13 13 12 11 12 11 11 14 17 18 16 15 14 13 12 12 12 12 10 11 15 16 15 14 14 13 12 12 12 12 14 14 14 15 14 14
29 28 28 29 27 26 24 23 21 20 20 19 19 19 18 18 17 18 18 19 19 18 17 16 16 16 16 15 14 14 13 12 11 11 11 10 10 11 12 11 11 11 11 10 11 13 12 12 13 12 12 11 10 10 9 10 13 16 17 15 14 13 11 10 9 8 6 5 9 14 12 12 14 13 12 12 11 11 10 11 13 15 15 13 14
26 26 27 27 26 25 23 23 21 20 19 19 19 18 18 17 17 17 18 19 19 18 18 17 16 16 16 15 14 13 12 12 11 11 11 10 10 11 11 11 10 11 11 11 12 12 11 13 13 11 11 10 9 8 8 9 11 14 15 14 13 12 10 9 8 8 7 7 14 14 10 11 13 13 11 12 11 9 8 8 10 12 13 13 14
25 26 27 27 25 24 23 22 20 19 19 19 19 18 18 18 17 17 18 20 19 18 18 17 17 16 16 15 14 13 13 12 11 11 11 11 10 10 11 11 11 10 10 11 11 11 11 12 11 10 9 8 8 6 6 5 7 12 14 14 13 11 9 9 9 10 12 16 20 14 10 11 11 12 10 11 10 9 8 9 11 11 12 13 13
23 25 27 26 25 23 23 21 20 19 18 19 19 18 18 18 18 17 18 19 19 18 18 17 17 17 16 15 14 13 13 12 11 11 11 11 11 10 11 11 10 9 9 9 10 9 8 9 7 7 6 6 7 5 4 4 4 9 13 13 12 10 9 10 11 12 18 20 18 14 12 10 11 11 8 9 10 10 8 9 12 13 13 13 13
22 25 26 25 24 23 22 20 19 18 18 18 18 18 18 18 18 18 18 19 19 18 17 17 17 17 16 15 14 14 12 12 11 10 10 10 10 10 10 10 9 9 8 8 8 8 7 6 5 6 5 5 6 5 4 4 4 8 13 13 11 10 10 12 15 15 21 19 16 14 12 11 11 10 8 9 11 11 10 10 12 12 13 12 12
23 26 27 25 23 22 21 20 19 18 18 18 18 18 18 19 19 18 19 19 19 18 18 18 17 17 16 15 14 13 12 11 10 9 10 10 10 10 10 9 8 8 7 7 7 7 6 5 6 6 6 6 6 5 5 3 3 7 12 13 11 11 11 13 16 16 18 15 14 12 11 11 11 8 8 10 12 12 11 11 11 12 12 12 12
25 27 27 25 23 21 21 20 19 18 17 17 18 18 18 19 19 19 19 19 19 18 18 18 17 16 16 15 14 12 11 10 10 9 9 9 10 11 10 9 8 8 7 7 8 7 7 7 8 7 6 6 6 6 5 3 3 5 11 14 12 11 11 13 15 16 16 13 12 11 10 11 9 8 8 11 13 12 11 11 11 11 11 11 12
26 28 27 24 23 21 20 19 18 18 17 18 18 18 18 19 19 19 19 19 18 18 17 16 16 15 14 14 13 12 10 9 9 8 8 8 9 10 10 10 8 7 7 7 8 7 8 8 8 7 6 6 6 6 5 5 5 4 12 14 12 11 13 16 16 18 17 13 12 10 9 10 8 8 9 12 13 12 11 10 11 11 11 11 11
27 28 27 25 23 21 20 19 18 17 17 17 17 17 17 18 19 19 19 18 17 17 16 15 14 14 13 13 12 11 10 9 8 8 8 7 9 9 9 9 8 8 7 7 7 7 8 8 7 7 7 6 6 6 6 6 5 6 13 13 11 11 14 17 16 19 17 13 12 10 9 9 8 8 9 12 13 12 11 10 10 11 11 10 9
27 27 26 24 22 21 20 18 18 17 17 17 17 17 17 17 18 18 18 17 16 16 15 15 14 12 12 12 11 10 9 8 8 8 8 8 8 8 8 8 8 8 7 7 6 6 7 6 7 7 6 6 6 5 5 5 5 8 14 12 9 10 13 15 15 17 15 13 12 11 10 10 8 7 8 11 13 11 10 10 9 10 10 10 9
25 25 26 24 22 21 20 19 18 17 17 16 16 16 16 17 17 17 17 16 15 15 15 14 13 12 11 10 10 10 9 9 8 8 8 8 8 7 7 7 7 7 7 6 5 6 6 6 7 7 6 5 5 4 4 5 4 9 14 11 8 9 13 15 15 16 14 13 12 11 10 9 7 6 6 10 12 10 10 9 9 9 9 10 8
23 24 24 23 22 22 22 21 20 18 17 17 16 16 16 16 16 16 15 15 15 14 14 13 12 11 11 10 10 10 10 9 8 8 8 8 8 7 7 7 7 7 7 6 5 5 5 6 7 7 6 4 4 4 4 4 4 10 14 11 9 10 12 12 13 14 13 12 10 9 9 7 5 5 6 9 11 10 10 9 8 8 9 9 8
22 23 23 22 23 24 23 22 20 18 18 17 17 16 16 16 16 15 14 14 14 14 13 13 12 12 11 11 11 11 12 11 10 9 8 8 7 7 7 6 6 6 6 5 5 5 6 7 7 7 6 5 4 5 5 4 4 10 13 10 9 11 11 10 12 11 10 10 7 7 7 5 4 4 6 9 12 11 10 9 8 8 8 8 8
22 23 22 22 23 23 22 21 20 19 18 17 17 17 16 15 15 15 14 14 14 13 13 12 12 12 12 12 12 13 13 12 11 10 9 8 7 6 6 6 6 6 5 5 5 6 6 8 8 7 6 6 5 6 6 4 6 10 12 9 9 10 11 9 11 9 9 8 6 6 6 5 4 5 6 9 12 11 10 9 8 7 7 8 8
21 23 21 22 21 21 21 21 20 19 19 17 17 17 16 16 16 15 15 14 14 13 13 12 13 13 13 12 13 13 12 12 11 10 9 9 8 6 5 5 6 5 5 5 4 5 6 8 8 7 6 6 6 6 6 5 7 9 11 7 6 7 9 8 9 8 9 8 7 7 6 5 5 7 7 9 10 10 10 9 8 7 7 8 7
19 21 20 21 20 21 22 21 20 19 18 17 18 17 17 16 16 16 15 15 14 13 13 13 13 14 14 13 13 12 12 11 9 9 9 9 8 6 5 5 5 4 5 5 4 5 6 8 8 7 6 6 6 5 5 6 6 8 10 7 5 7 8 7 7 8 8 8 7 6 5 6 7 8 8 9 9 10 11 10 9 8 8 8 7
20 21 21 21 19 20 22 21 20 20 19 18 18 17 17 17 16 17 16 17 16 15 14 13 14 14 14 14 13 11 11 11 10 9 9 9 8 7 6 5 5 4 4 4 4 5 5 7 8 8 7 8 7 6 5 5 6 8 9 7 6 6 6 4 5 8 9 7 6 6 6 7 8 9 9 9 10 11 11 10 9 8 7 8 7
20 22 21 21 20 20 22 21 19 20 20 19 18 17 19 17 17 19 18 18 18 17 15 14 14 14 14 15 14 12 11 11 10 10 10 10 9 8 8 7 6 5 5 4 4 5 5 6 7 8 8 8 8 7 5 3 5 7 8 6 5 4 4 4 5 7 8 6 6 6 6 7 9 11 11 11 11 11 10 10 11 9 7 8 7
16 21 21 20 18 18 20 20 19 19 19 19 18 18 20 18 18 20 20 20 19 19 17 16 15 15 15 16 15 14 12 10 10 11 12 12 10 10 10 9 8 6 5 5 4 3 4 6 6 7 7 8 7 6 4 4 5 6 4 3 5 4 3 5 6 6 5 5 6 5 4 8 10 12 12 11 11 11 9 9 12 10 9 9 7
10 19 20 20 18 18 18 19 20 19 18 19 18 19 20 19 18 19 20 21 21 20 19 17 15 16 17 17 15 14 13 11 11 12 11 12 11 11 12 11 10 9 7 7 6 3 4 5 5 6 6 6 4 4 4 4 7 6 2 3 6 4 2 5 8 5 4 3 4 4 3 7 10 11 11 10 12 12 9 9 10 8 9 10 8
10 18 19 20 20 19 18 18 19 19 18 19 19 19 20 20 19 18 18 20 20 20 19 17 14 15 17 17 15 13 14 12 10 11 11 11 11 12 11 11 12 12 10 9 8 5 6 6 5 7 6 4 3 4 5 5 6 7 4 5 7 4 2 5 8 5 4 3 3 3 3 6 8 9 9 9 11 13 10 9 8 5 7 10 9
11 17 18 20 21 20 20 18 18 17 17 18 18 18 20 19 17 16 16 18 20 19 18 18 16 15 15 16 14 13 14 12 11 11 10 11 11 11 12 12 13 13 12 10 9 7 8 8 7 7 6 5 4 5 7 5 5 7 6 5 5 4 2 5 7 5 4 3 2 3 4 5 7 8 8 8 9 11 11 9 7 4 5 8 8
14 15 16 18 21 22 22 20 18 16 16 17 16 17 20 18 15 15 16 15 16 16 16 17 16 16 15 13 13 12 11 10 10 10 10 12 11 10 10 11 13 13 13 11 10 8 8 10 10 8 7 7 6 6 6 5 4 6 7 6 3 4 4 4 5 4 4 3 4 4 4 5 5 7 8 8 8 10 11 8 6 4 4 6 8
19 17 16 16 19 20 20 18 16 16 15 15 14 17 18 15 12 13 14 13 13 13 13 14 13 13 12 12 13 13 11 10 11 11 12 12 12 11 9 9 12 13 13 11 10 8 8 10 12 10 10 9 7 8 8 6 4 5 7 7 3 3 5 5 4 4 5 6 6 5 4 5 5 5 6 8 9 9 10 9 6 4 3 5 7
26 24 21 17 18 17 17 16 15 16 15 13 13 14 16 14 12 11 12 12 12 13 11 10 10 10 11 14 16 14 12 12 13 14 14 13 12 12 10 8 12 13 12 11 10 10 9 9 11 11 10 10 8 9 11 9 7 5 6 7 4 3 5 6 6 5 6 8 8 5 4 5 5 4 5 6 8 8 10 9 7 5 3 4 6
22 22 26 26 23 19 19 18 16 17 15 12 11 10 11 12 11 12 11 10 12 14 12 10 11 11 11 13 14 14 14 14 15 15 14 13 12 12 12 10 12 12 11 11 11 11 10 8 10 10 10 12 10 9 10 10 9 8 7 7 6 4 4 7 8 6 4 7 8 6 6 6 5 5 5 5 7 7 9 9 9 7 5 5 5
18 22 28 30 28 24 23 21 19 19 17 15 13 10 11 12 12 11 10 9 11 14 13 12 12 12 11 10 10 12 14 15 15 14 11 11 11 10 11 12 11 11 11 13 13 12 10 8 9 11 11 12 12 9 10 10 9 8 8 7 6 6 5 6 7 5 3 6 7 6 7 8 6 5 5 5 6 7 8 8 9 8 6 7 6
21 24 26 26 25 23 22 21 20 20 18 17 16 12 14 17 14 12 11 9 10 13 14 15 14 11 10 9 8 10 13 14 13 13 11 10 11 9 9 10 9 9 11 13 15 13 12 9 9 12 13 11 11 10 9 10 9 7 7 7 6 7 8 6 5 3 3 4 5 5 7 8 6 6 6 6 6 7 8 8 8 9 8 7 7
22 23 23 23 22 21 20 19 18 18 18 18 16 14 16 18 15 13 11 10 10 12 14 16 15 12 9 9 9 10 11 12 11 11 13 13 13 10 9 9 8 9 9 12 15 15 13 11 9 12 14 12 10 10 8 8 8 6 6 5 4 4 6 7 6 5 4 3 3 4 5 7 8 6 6 7 8 7 8 8 9 9 9 9 8
22 22 23 21 22 21 20 19 18 18 18 18 16 14 16 16 14 13 12 12 13 14 15 15 15 12 10 10 10 9 8 9 9 9 11 13 12 10 9 9 9 8 8 11 15 15 14 11 9 12 15 14 11 10 8 6 6 6 5 4 3 3 3 4 5 6 6 6 4 3 2 4 7 9 10 10 9 9 9 9 9 9 10 10 10
22 21 21 20 21 22 20 19 18 18 19 19 17 15 14 14 13 14 16 16 17 16 16 15 14 13 12 11 11 11 10 10 11 10 10 10 8 7 8 8 9 8 8 12 15 14 12 10 10 12 14 13 12 10 9 6 5 5 4 4 3 2 3 3 3 4 5 5 6 6 4 1 2 6 11 14 12 9 9 10 10 10 11 11 11
23 20 19 19 21 21 20 20 20 20 20 20 19 17 16 15 14 16 19 22 21 20 18 17 15 15 14 13 13 13 13 13 12 10 9 8 6 7 8 8 9 9 10 13 14 13 11 9 10 12 13 12 11 10 9 8 6 5 4 3 2 1 2 2 3 3 3 4 4 6 7 4 2 2 3 11 16 13 10 11 12 12 12 12 12
25 22 20 21 21 21 21 20 21 21 20 19 18 18 17 16 16 18 23 25 25 24 21 19 17 16 15 14 14 13 12 11 10 8 8 7 6 7 7 7 8 9 11 13 13 13 11 10 10 12 13 12 10 9 10 9 7 5 3 1 0 1 1 2 3 4 4 4 4 4 5 4 5 4 3 2 8 11 12 13 13 14 13 13 13
28 25 23 23 23 22 22 21 21 21 20 20 20 19 19 18 18 21 24 26 27 25 22 20 19 17 15 13 12 11 10 9 8 7 7 7 6 7 7 6 6 8 11 12 12 12 11 11 12 11 12 12 11 9 8 7 5 3 1 1 1 1 2 3 3 4 5 5 4 3 3 1 1 4 4 3 3 3 6 10 13 17 17 15 14
30 28 26 25 23 22 22 21 20 21 21 20 20 19 20 20 19 21 25 25 24 22 19 19 19 18 16 13 12 10 10 10 8 7 8 7 6 7 7 6 5 6 9 11 12 13 12 11 12 11 10 10 9 7 5 4 4 3 2 1 1 1 2 2 3 4 4 5 5 3 3 1 4 5 4 4 5 6 4 5 9 14 18 19 18
30 29 27 25 24 23 22 20 20 21 19 17 17 18 19 19 20 23 25 23 20 18 18 18 18 17 16 14 12 10 10 11 10 9 10 8 6 7 8 6 5 5 7 8 10 13 13 12 11 10 9 8 6 4 4 4 4 4 3 2 1 1 1 1 3 4 2 2 4 3 1 1 3 3 3 4 7 7 5 4 4 6 12 17 18
29 29 28 26 25 24 23 21 21 20 18 16 17 18 18 20 23 25 24 22 21 20 20 19 17 17 15 14 14 12 12 13 12 12 11 9 7 9 9 7 5 4 6 7 8 11 13 12 11 10 8 7 6 4 5 5 5 5 3 1 1 2 1 1 2 3 2 2 1 2 1 1 1 2 3 4 7 7 6 5 5 5 8 10 13
29 28 29 28 26 26 24 22 22 20 18 18 19 20 23 26 28 27 24 24 24 22 21 20 18 18 17 15 14 14 16 15 13 12 12 12 11 10 10 9 7 5 5 6 7 8 9 9 10 11 9 8 7 6 5 6 6 5 4 3 1 1 1 1 2 2 1 2 2 2 2 2 1 2 1 2 4 6 7 5 5 6 8 10 11
30 29 29 29 28 28 25 22 22 19 19 20 20 21 25 28 28 28 26 25 23 21 22 22 20 18 17 16 15 14 15 16 14 13 13 13 13 13 13 12 11 10 8 6 7 8 7 7 7 8 7 7 7 6 6 5 7 7 5 4 2 2 2 0 2 0 1 1 2 3 3 3 3 4 2 1 2 4 7 7 5 5 6 8 9
31 31 28 27 28 29 26 23 22 19 19 20 20 20 23 24 23 24 25 24 22 21 22 22 20 19 19 17 16 15 13 14 14 13 14 13 13 13 12 12 13 15 15 13 13 12 9 8 7 6 6 6 7 7 6 5 6 6 6 5 2 2 1 0 1 0 1 1 1 3 4 5 5 6 4 4 6 6 6 7 9 8 5 5 5
32 31 29 27 28 28 27 26 23 19 19 19 20 20 21 20 21 22 23 23 22 23 23 21 20 20 20 18 17 15 13 12 11 12 13 13 12 12 12 12 13 14 16 17 16 15 14 13 12 11 10 8 7 8 9 7 4 4 5 6 5 4 3 3 3 2 1 0 2 2 3 4 5 6 6 5 5 7 8 7 8 9 7 5 5
34 33 32 30 29 28 28 28 25 20 19 20 20 20 20 20 22 24 24 23 24 24 22 20 20 21 21 19 17 15 14 13 12 12 13 12 13 14 14 12 11 10 12 14 14 14 15 15 14 13 14 13 11 11 12 9 6 4 3 4 5 5 3 1 2 4 2 1 1 3 2 1 4 5 5 6 5 6 9 9 9 9 9 8 8
33 33 33 32 30 29 28 27 26 23 20 21 22 20 21 23 24 25 26 27 26 24 21 20 21 21 21 19 17 16 16 15 14 14 13 12 13 15 14 12 10 9 9 10 12 13 13 13 13 13 14 15 14 14 13 12 10 8 6 5 5 4 3 2 0 2 2 1 1 3 5 5 4 4 3 5 6 7 8 9 10 9 9 10 10
29 28 30 31 29 27 25 24 24 25 23 23 24 23 24 26 25 27 29 28 27 24 23 22 22 22 20 19 18 18 17 15 14 14 13 12 13 14 15 14 13 12 12 11 12 12 12 12 12 11 11 12 13 13 12 12 12 12 12 10 9 8 7 6 6 6 5 3 1 3 7 10 8 7 8 9 8 7 9 10 11 10 9 7 9
Wind_Direction
151 149 147 150 150 151 149 149 149 148 146 145 144 147 152 150 145 143 140 134 131 129 126 122 122 123 121 119 115 112 109 107 107 107 107 105 103 98 96 95 93 91 91 90 92 90 81 80 84 86 87 88 90 93 95 99 102 105 108 105 102 105 104 99 99 101 103 102 96 92 87 82 82 81 75 75 85 84 77 75 72 73 73 73 74
153 149 148 150 150 151 149 149 148 149 148 146 145 146 151 151 148 145 142 138 134 131 127 124 125 127 126 123 119 116 114 113 112 112 111 108 103 99 99 100 98 94 93 92 94 91 82 82 85 87 89 90 91 94 96 97 98 102 105 103 102 102 101 99 100 102 103 99 95 96 89 83 86 83 76 75 83 85 76 74 75 73 74 75 74
151 150 148 149 149 149 149 149 148 149 149 148 146 146 149 150 148 146 143 141 136 133 129 125 127 127 128 126 122 118 117 115 113 114 113 111 106 103 103 102 99 95 94 94 95 94 86 85 86 88 89 89 91 94 96 97 99 99 100 102 103 103 102 99 99 100 97 91 88 90 88 88 88 83 77 74 79 80 75 75 76 75 75 74 73
149 150 149 148 148 148 149 148 148 149 148 147 146 146 148 147 146 146 144 143 140 136 131 127 128 127 127 128 126 122 119 116 113 114 114 112 109 107 103 99 98 96 96 95 96 95 90 89 89 90 91 92 93 92 95 98 98 97 100 107 109 109 109 105 102 100 95 88 84 83 84 88 88 81 77 75 74 75 75 73 73 75 75 73 73
148 150 149 148 147 148 149 148 148 148 147 147 146 146 147 146 145 146 145 145 143 139 134 129 130 129 128 128 128 127 123 119 115 114 114 112 111 109 103 100 99 96 97 96 96 95 93 92 91 92 95 99 95 89 93 96 94 98 106 111 111 112 113 112 109 107 100 89 83 82 84 85 85 83 78 76 74 74 75 72 73 76 77 75 74
149 151 149 147 147 148 148 148 149 148 147 146 145 145 145 147 146 146 146 147 145 141 137 131 132 133 131 129 128 127 123 121 116 113 113 111 111 110 107 104 102 98 97 96 97 96 95 93 92 92 96 99 92 91 95 91 94 105 112 113 112 112 112 113 116 118 113 97 85 87 89 80 76 81 79 74 75 74 75 75 75 78 79 77 75
148 148 148 147 147 148 148 149 148 147 146 145 144 142 144 147 147 147 147 148 146 143 139 134 134 136 136 133 129 126 122 117 113 110 111 113 112 107 103 102 103 102 100 100 101 100 97 98 99 96 98 95 89 94 94 86 97 112 115 115 115 114 112 112 119 125 127 113 98 100 92 75 67 76 81 76 77 77 80 82 80 80 79 77 76
143 146 148 147 146 148 148 148 147 145 144 143 141 141 143 146 148 149 148 148 147 144 141 137 137 139 138 136 131 127 123 117 114 112 111 113 115 111 106 105 109 109 109 108 102 103 104 106 104 98 100 98 98 100 93 90 102 116 119 119 119 117 117 114 114 112 116 116 117 115 94 76 70 68 78 80 81 85 87 90 86 80 77 77 78
139 146 149 147 147 148 148 148 147 144 143 140 139 139 142 144 148 150 148 149 148 145 143 140 140 140 139 136 132 128 124 119 116 114 112 110 113 114 115 116 118 116 117 117 112 115 119 117 109 101 102 101 110 112 103 99 104 121 125 125 123 119 114 107 100 78 72 119 139 132 100 85 72 60 76 86 87 95 94 90 90 84 82 83 81
142 149 151 148 147 148 148 148 147 145 142 137 136 137 139 141 145 148 148 149 149 147 144 142 141 140 139 136 132 129 124 121 119 117 114 110 109 113 118 119 119 118 119 124 125 127 123 120 116 109 106 103 112 121 122 112 105 126 133 129 124 115 109 101 87 71 91 130 144 134 103 90 69 57 76 95 98 97 91 85 87 90 89 85 83
147 152 151 148 147 149 149 148 147 143 139 136 135 135 136 139 143 147 148 149 149 147 144 142 142 141 140 137 134 130 126 123 122 119 114 112 110 114 121 123 121 119 121 126 132 135 126 118 116 112 108 101 106 115 135 145 121 130 139 133 123 114 106 95 75 89 122 136 139 122 103 88 65 63 80 105 105 92 90 90 91 92 92 88 85
148 153 151 149 148 150 149 148 146 140 136 134 134 134 135 139 143 146 147 148 147 146 144 143 142 142 140 137 133 129 127 124 123 120 115 115 115 117 123 126 124 121 122 124 132 141 140 126 112 107 103 94 95 97 106 130 124 130 144 138 127 117 101 88 77 106 135 136 126 111 95 78 66 75 93 112 109 94 91 93 96 96 96 93 89
150 155 152 150 149 150 149 147 145 140 135 133 133 132 135 139 142 144 145 147 146 145 144 144 144 143 141 137 135 131 128 127 125 122 118 117 118 119 122 126 125 123 126 123 127 136 138 122 111 110 104 98 94 94 93 103 103 127 149 145 131 114 93 85 84 115 139 129 114 100 83 75 72 82 105 119 111 98 95 96 98 98 99 98 94
151 153 151 150 149 150 149 147 145 140 137 134 133 133 137 140 142 144 144 146 145 144 144 145 145 143 142 139 138 134 132 130 127 126 123 119 119 122 123 126 127 125 127 122 121 122 121 113 110 110 107 106 96 89 77 62 60 122 155 150 132 106 87 83 91 126 139 123 111 97 85 78 77 88 107 117 108 102 102 100 99 98 100 100 98
148 151 151 151 150 150 149 148 145 142 139 136 135 136 139 140 142 144 144 145 143 143 145 145 144 144 144 141 140 137 136 134 131 131 130 126 122 124 125 127 129 127 123 118 120 117 117 115 110 110 113 111 95 81 65 55 49 115 157 151 127 98 90 87 99 135 140 126 120 106 90 77 82 96 110 116 110 107 106 102 102 101 100 100 101
148 150 151 151 150 148 147 147 147 143 141 140 140 140 141 142 143 143 143 142 141 143 145 144 145 146 145 141 140 139 139 140 140 137 134 135 130 126 127 127 125 123 120 118 124 125 125 123 115 114 119 112 101 87 69 64 59 121 157 150 123 98 96 90 105 139 138 124 118 102 90 82 86 99 112 116 110 110 109 107 103 102 102 101 101
146 150 150 149 148 146 146 147 148 146 146 146 144 143 144 145 145 145 144 143 142 144 145 146 148 146 144 143 142 141 142 145 146 143 138 138 135 129 127 125 122 121 123 127 133 134 135 134 126 121 124 120 117 100 72 68 76 133 155 145 119 99 97 93 110 137 131 117 110 98 94 89 86 94 111 116 111 113 112 110 106 104 104 101 100
145 149 147 146 146 147 149 151 153 153 152 150 147 147 147 149 149 148 148 146 145 147 148 149 148 146 146 145 145 144 147 151 150 149 144 140 139 134 130 126 126 127 125 129 137 140 144 147 139 132 134 134 133 113 76 69 90 140 153 143 117 97 94 98 116 132 126 116 107 97 92 86 82 84 114 125 118 119 116 114 112 108 106 104 103
143 147 143 144 147 152 156 157 159 157 155 154 153 152 152 153 153 153 152 151 151 151 151 151 150 150 150 149 148 148 151 155 155 152 147 146 145 142 141 137 134 132 128 127 133 140 147 153 148 138 134 138 148 137 95 67 99 142 151 142 112 95 88 99 127 134 125 117 104 95 86 77 73 81 123 133 124 123 123 120 116 110 110 110 105
140 142 140 147 156 161 161 160 161 160 159 158 158 158 157 158 158 160 159 158 158 157 156 155 155 155 156 154 152 152 153 156 158 155 150 151 151 151 152 147 143 136 133 129 132 144 152 159 157 139 127 135 150 146 122 76 102 145 151 138 107 97 84 103 141 141 128 121 110 101 90 78 79 105 130 136 132 129 128 125 120 116 115 114 110
139 139 142 154 162 162 161 162 161 161 163 161 162 162 161 164 164 165 166 168 167 165 163 160 160 159 158 157 158 157 156 158 162 158 155 157 159 164 164 154 149 141 140 138 136 147 157 166 163 145 131 135 142 144 138 97 108 148 157 134 104 103 85 108 154 152 134 129 118 109 101 98 113 131 135 136 137 134 134 132 127 124 120 118 117
138 140 148 159 160 158 162 165 162 164 166 165 167 165 166 169 169 170 173 176 173 170 168 164 163 159 159 161 159 158 158 161 163 162 165 171 169 172 176 161 152 147 142 142 143 152 161 172 169 157 145 143 150 154 153 130 119 144 166 153 107 104 82 106 157 157 137 131 121 115 111 120 138 146 142 143 142 139 139 137 136 136 127 123 125
136 142 154 159 158 160 166 166 163 167 168 169 172 170 169 172 175 176 178 180 179 178 175 170 165 160 163 165 163 162 163 163 163 170 176 180 178 179 184 173 158 149 143 140 144 156 166 175 177 177 168 163 171 178 171 163 144 140 159 157 121 113 88 100 153 157 141 130 119 114 120 133 148 152 147 149 142 137 141 142 143 144 139 133 132
141 145 156 160 161 164 167 166 167 171 173 175 174 173 171 173 180 183 186 186 185 185 183 177 171 169 169 169 170 167 166 167 169 176 182 188 190 187 188 187 172 160 161 155 147 159 172 179 184 190 192 185 179 181 172 170 168 149 146 137 125 127 96 94 153 154 140 124 117 116 129 140 147 149 145 147 141 139 145 147 148 149 149 141 138
150 147 154 159 162 164 167 168 172 174 175 178 176 175 173 173 182 189 193 191 190 191 189 183 178 181 179 176 175 172 172 176 179 179 184 192 196 196 195 196 192 186 191 187 164 167 183 188 189 192 197 197 184 180 181 196 191 163 153 144 138 136 107 129 154 144 129 108 112 120 133 144 147 148 144 146 145 147 152 150 151 153 156 148 146
155 147 152 157 161 161 165 168 172 175 176 179 179 177 176 176 184 192 196 196 194 194 194 188 184 190 193 190 183 179 181 185 192 185 185 194 200 204 203 202 206 208 213 214 198 184 195 192 190 190 190 195 187 189 220 241 206 169 163 169 156 146 127 161 165 138 121 95 104 117 139 151 152 153 152 153 151 152 155 152 153 157 160 157 153
175 152 156 158 162 164 168 170 173 178 180 184 183 177 176 181 188 195 198 198 197 198 199 191 185 193 201 202 192 183 185 193 199 188 187 197 203 207 207 209 212 212 212 216 223 231 208 185 170 172 178 196 207 225 232 212 189 180 198 197 177 168 118 175 186 157 132 104 103 108 141 159 162 163 157 152 155 158 156 152 156 161 166 162 155
209 164 163 164 165 169 172 175 178 182 183 185 185 178 177 184 190 196 200 201 202 203 202 195 189 193 202 208 202 188 184 189 194 190 196 203 207 209 213 218 214 210 208 209 219 215 192 185 170 169 172 198 235 235 201 173 185 191 176 168 183 192 91 160 189 167 148 136 113 117 137 157 164 164 153 143 155 163 160 158 162 156 167 173 163
219 169 168 172 170 174 174 176 178 181 183 181 184 179 177 184 192 199 202 204 208 209 206 202 198 195 202 212 214 203 184 178 185 196 210 212 214 214 217 220 213 206 203 204 205 189 191 199 188 179 179 191 219 218 190 168 194 195 166 145 173 199 133 142 170 159 154 163 144 141 139 151 156 157 154 143 150 162 163 164 168 146 156 183 175
218 177 167 174 174 179 177 176 176 179 181 177 179 177 176 185 195 202 204 204 205 205 203 203 203 201 202 207 216 217 194 175 179 194 211 211 207 205 209 209 203 199 196 197 193 191 208 206 192 190 196 194 205 209 186 168 197 201 174 144 131 182 174 147 159 166 171 188 184 163 144 146 147 153 159 152 146 157 167 167 164 140 130 173 176
211 179 163 165 170 177 173 172 173 175 177 173 174 173 177 183 188 197 202 201 201 200 197 197 198 197 197 200 207 210 197 178 174 188 202 199 192 189 186 183 186 189 188 188 192 203 210 195 188 189 190 190 200 205 195 188 198 201 181 165 143 176 187 175 179 199 208 205 189 175 160 155 150 150 160 163 155 154 166 172 165 146 118 150 160
196 180 176 170 165 170 172 170 168 170 166 161 161 163 170 173 176 186 189 193 199 202 201 195 190 189 194 198 200 201 194 186 184 192 198 195 191 187 179 173 180 184 183 185 192 199 192 185 189 186 182 184 191 190 190 196 190 183 188 190 200 208 196 197 206 206 210 208 192 188 187 171 166 168 167 173 173 163 165 171 173 169 144 141 148
179 167 170 173 174 173 171 166 163 169 164 156 151 150 161 168 173 176 178 186 190 192 194 188 187 191 190 187 192 195 191 192 195 200 202 198 197 189 182 183 189 192 191 191 192 186 177 185 192 186 186 189 186 170 172 182 173 166 182 200 211 212 185 188 202 201 197 204 202 211 209 191 180 183 184 186 187 181 174 173 178 185 169 156 169
145 133 139 153 164 160 152 143 142 154 159 162 158 153 169 177 171 159 164 177 174 179 183 181 185 191 188 181 186 184 182 190 198 204 207 207 206 197 189 191 194 200 198 197 196 184 176 189 189 185 189 192 192 178 169 169 160 161 174 188 199 202 196 175 182 191 176 187 202 224 218 206 199 196 200 197 197 198 194 186 183 191 186 172 180
133 126 125 133 141 139 137 133 135 143 145 152 150 143 156 166 163 150 148 153 154 163 170 177 183 189 193 192 182 170 177 185 187 194 198 208 219 216 206 204 198 197 198 198 198 188 184 186 179 179 177 176 183 176 171 171 164 163 164 169 178 193 209 201 185 191 166 161 185 218 222 217 211 210 218 213 211 211 210 209 197 196 197 192 192
134 130 131 132 132 132 138 138 140 143 140 144 144 131 133 143 148 144 140 138 143 150 155 164 172 177 183 185 178 170 175 174 166 180 191 199 213 215 214 214 200 196 199 194 192 189 188 188 175 172 166 158 162 158 161 174 173 172 162 161 163 175 206 213 215 216 195 167 154 184 217 229 228 229 232 229 228 223 217 219 216 209 206 207 210
142 138 139 137 135 136 141 143 144 144 143 144 143 133 129 134 141 148 152 141 132 132 134 143 150 155 162 168 168 162 164 164 157 169 189 199 206 209 208 207 200 201 203 193 191 189 189 190 172 163 161 154 154 152 154 168 174 182 183 182 181 176 190 198 211 218 214 212 202 188 198 228 237 243 244 242 235 230 226 224 224 221 216 215 217
152 148 149 146 141 140 142 145 146 146 143 139 137 136 136 138 141 151 160 148 130 121 119 122 124 126 138 151 158 158 166 176 177 177 190 199 201 204 203 204 207 209 205 195 190 188 189 192 170 158 160 158 158 156 148 146 149 160 173 188 193 194 200 194 200 211 217 222 222 224 232 238 236 251 250 245 237 232 236 234 230 228 226 224 223
156 154 156 154 147 145 147 146 146 145 140 138 138 139 142 144 145 141 144 145 137 127 122 119 116 118 126 136 143 149 157 167 176 183 191 193 192 200 195 192 202 209 204 194 189 187 185 188 177 164 162 159 160 157 146 144 144 145 153 171 202 244 249 262 258 241 236 235 228 227 239 249 254 349 289 243 234 232 241 243 234 232 233 229 228
159 161 160 159 155 150 153 152 151 147 142 145 144 143 143 143 145 138 133 138 139 133 128 125 124 124 127 128 132 139 147 153 154 154 162 170 176 188 187 181 195 207 200 189 188 190 186 181 178 171 165 158 158 161 156 153 149 144 152 163 281 299 291 303 289 270 262 256 254 245 243 252 262 294 359 244 236 239 244 247 244 240 238 236 234
159 164 161 161 160 157 159 157 155 150 146 151 150 150 154 151 148 143 136 135 135 132 128 130 130 129 130 131 134 138 145 148 138 135 136 135 149 162 163 166 187 207 202 194 192 189 185 181 176 173 170 163 161 167 168 167 162 154 179 244 276 276 284 312 318 296 277 262 263 277 264 258 350 314 306 308 308 295 257 251 253 245 238 238 238
161 165 165 164 163 164 166 161 157 154 150 154 158 160 162 162 156 147 141 136 135 133 127 130 132 130 130 130 135 138 144 143 133 144 140 117 123 147 151 150 161 190 197 202 204 192 182 181 180 177 174 171 171 178 182 175 168 162 137 59 353 283 286 320 352 333 295 261 255 281 297 293 60 30 335 315 328 338 325 276 260 249 240 238 240
164 166 168 167 166 168 170 165 158 156 158 164 172 175 170 165 159 150 144 135 131 129 122 124 128 132 132 129 130 132 139 136 123 132 144 130 114 132 146 149 146 165 179 188 200 194 185 186 188 185 181 183 187 195 204 177 135 130 118 67 357 356 9 4 37 22 345 276 246 244 305 357 70 34 343 2 360 343 322 291 274 251 241 241 244
166 167 168 168 169 173 175 170 160 158 167 168 164 168 162 152 147 144 140 131 125 124 122 123 123 127 129 124 118 116 123 128 119 117 128 134 125 120 128 133 129 142 151 149 165 183 190 193 196 198 200 206 210 208 208 185 141 129 126 108 123 81 40 317 38 43 55 85 126 162 163 182 77 351 310 359 360 340 327 309 287 264 246 248 249
168 168 170 171 173 178 179 173 164 165 174 168 156 149 144 139 136 134 131 129 130 130 127 124 120 118 121 120 113 110 115 121 123 117 113 119 125 123 118 111 102 116 136 128 136 165 181 189 197 206 212 217 214 194 186 187 168 158 149 133 89 96 194 255 37 42 131 134 127 136 141 186 218 312 306 25 2 328 328 327 295 274 260 259 255
173 170 171 173 176 180 181 177 170 173 178 172 164 153 144 140 138 136 136 136 137 136 131 127 124 120 119 120 114 110 113 116 121 121 113 110 112 116 114 105 96 102 119 125 127 139 147 160 177 192 198 201 198 178 171 187 188 186 175 157 127 122 157 88 73 5 262 198 205 205 211 216 247 282 269 239 285 299 324 329 314 299 274 266 261
176 172 170 172 176 177 178 177 174 179 180 176 176 166 154 150 148 144 143 144 141 136 133 129 127 123 119 118 113 108 112 116 119 117 115 112 107 109 111 110 105 102 108 114 116 115 115 123 131 138 150 168 182 172 164 178 189 199 205 207 195 139 139 244 162 236 337 292 237 206 227 241 256 270 258 250 261 264 299 320 317 314 297 278 268
177 174 173 173 173 172 175 175 172 180 186 183 184 178 167 161 154 148 147 148 142 136 135 130 127 124 120 119 117 115 114 117 121 120 117 112 105 110 116 118 115 109 110 113 114 111 108 112 115 115 114 122 143 137 130 137 145 175 200 211 218 214 224 250 239 210 130 292 294 249 244 248 244 246 245 262 277 266 264 276 297 306 295 274 265
178 179 182 180 175 171 173 173 168 177 192 191 188 184 175 165 156 153 150 145 141 139 135 129 128 127 123 123 123 121 116 113 116 122 124 114 101 107 116 119 119 119 118 114 114 114 111 113 116 113 108 108 116 114 110 112 112 119 157 180 187 193 199 203 227 223 192 173 278 290 303 276 249 250 251 266 282 277 271 264 271 290 296 289 275
182 182 186 187 184 179 178 176 169 175 195 197 191 185 173 166 162 158 150 143 141 139 135 134 136 134 129 129 126 121 118 114 112 116 124 123 108 104 105 106 107 112 123 122 119 117 111 108 111 114 115 113 116 119 115 110 107 102 105 133 147 144 135 113 98 252 243 220 260 319 356 357 317 309 312 307 306 295 287 279 273 280 298 304 292
183 180 186 189 186 182 181 182 175 177 193 198 192 184 173 172 171 161 152 148 146 143 141 143 144 140 135 133 131 126 123 120 118 116 120 124 118 111 105 102 100 96 103 110 109 109 109 107 108 116 124 123 124 128 126 119 111 100 97 106 112 105 96 80 56 50 56 51 25 336 352 356 350 351 346 332 324 307 295 294 292 288 285 298 305